When you browse on this site, cookies collect data to enhance your experience and personalize the content and advertising you see.
Visit our Privacy Policy to learn more. By continuing to use the site, you agree to this use of cookies and data.
  • In Österreich
  • Länderverzeichnis
  • Für 7 Tage
  • Wassertemperatur
  • Satellitenkarten
  • Wetterkarte
  • News
  • Widgets
  • user-avatar
    Anmelden

    Stündliche Wetter Kutaissi

    Heute, 21 Januar, Montag

    Zeit Temperatur Niederschläge Wind Luftdruck Luftfeuchtigkeit
    00:00 +3°C° 0 mm 3 m/S 754 mmHg 58%
    01:00 +3°C° 0 mm 3 m/S 754 mmHg 58%
    02:00 +3°C° 0 mm 3 m/S 754 mmHg 57%
    03:00 +3°C° 0 mm 3 m/S 754 mmHg 57%
    04:00 +3°C° 0 mm 3 m/S 754 mmHg 56%
    05:00 +3°C° 0 mm 3 m/S 754 mmHg 56%
    06:00 +3°C° 0 mm 3 m/S 753 mmHg 55%
    07:00 +3°C° 0 mm 3 m/S 753 mmHg 54%
    08:00 +4°C° 0 mm 3 m/S 753 mmHg 52%
    09:00 +4°C° 0 mm 3 m/S 753 mmHg 50%
    10:00 +7°C° 0 mm 3 m/S 752 mmHg 47%
    11:00 +9°C° 0 mm 3 m/S 751 mmHg 43%
    12:00 +10°C° 0 mm 3 m/S 751 mmHg 39%
    13:00 +11°C° 0 mm 3 m/S 750 mmHg 39%
    14:00 +11°C° 0 mm 3 m/S 750 mmHg 39%
    15:00 +11°C° 0 mm 3 m/S 750 mmHg 40%
    16:00 +10°C° 0 mm 3 m/S 750 mmHg 45%
    17:00 +8°C° 0 mm 2 m/S 751 mmHg 50%
    18:00 +7°C° 0 mm 2 m/S 751 mmHg 56%
    19:00 +6°C° 0 mm 2 m/S 751 mmHg 56%
    20:00 +5°C° 0 mm 2 m/S 751 mmHg 57%
    21:00 +5°C° 0 mm 2 m/S 751 mmHg 57%
    22:00 +5°C° 0 mm 2 m/S 751 mmHg 56%
    23:00 +4°C° 0 mm 2 m/S 751 mmHg 55%

    Morgen, 22 Januar, Dienstag

    Zeit Temperatur Niederschläge Wind Luftdruck Luftfeuchtigkeit
    00:00 +4°C° 0 mm 2 m/S 751 mmHg 54%
    01:00 +4°C° 0 mm 2 m/S 751 mmHg 53%
    02:00 +4°C° 0 mm 2 m/S 750 mmHg 53%
    03:00 +4°C° 0 mm 2 m/S 750 mmHg 52%
    04:00 +4°C° 0 mm 2 m/S 750 mmHg 53%
    05:00 +5°C° 0 mm 1 m/S 750 mmHg 53%
    06:00 +5°C° 0 mm 1 m/S 750 mmHg 54%
    07:00 +6°C° 0 mm 1 m/S 751 mmHg 55%
    08:00 +6°C° 0 mm 1 m/S 751 mmHg 56%
    09:00 +7°C° 0 mm 1 m/S 751 mmHg 57%
    10:00 +7°C° 0.2 mm 1 m/S 751 mmHg 57%
    11:00 +7°C° 0.2 mm 0 m/S 750 mmHg 58%
    12:00 +7°C° 0.2 mm 0 m/S 750 mmHg 59%
    13:00 +7°C° 0.4 mm 0 m/S 750 mmHg 64%
    14:00 +7°C° 0.4 mm 0 m/S 750 mmHg 68%
    15:00 +7°C° 0.4 mm 1 m/S 750 mmHg 73%
    16:00 +6°C° 0.4 mm 0 m/S 750 mmHg 77%
    17:00 +5°C° 0.4 mm 0 m/S 751 mmHg 81%
    18:00 +5°C° 0.4 mm 0 m/S 751 mmHg 85%
    19:00 +5°C° 0.1 mm 0 m/S 751 mmHg 85%
    20:00 +5°C° 0.1 mm 0 m/S 752 mmHg 86%
    21:00 +4°C° 0.1 mm 0 m/S 752 mmHg 86%
    22:00 +5°C° 0 mm 1 m/S 752 mmHg 85%
    23:00 +5°C° 0 mm 1 m/S 752 mmHg 83%

    übermorgen, 23 Januar, Mittwoch

    Zeit Temperatur Niederschläge Wind Luftdruck Luftfeuchtigkeit
    00:00 +5°C° 0 mm 1 m/S 752 mmHg 81%
    01:00 +4°C° 0 mm 2 m/S 752 mmHg 78%
    02:00 +4°C° 0 mm 2 m/S 752 mmHg 75%
    03:00 +3°C° 0 mm 2 m/S 752 mmHg 71%
    04:00 +3°C° 0 mm 2 m/S 751 mmHg 69%
    05:00 +3°C° 0 mm 2 m/S 751 mmHg 66%
    06:00 +2°C° 0 mm 3 m/S 751 mmHg 63%
    07:00 +3°C° 0 mm 3 m/S 751 mmHg 61%
    08:00 +3°C° 0 mm 3 m/S 751 mmHg 58%
    09:00 +4°C° 0 mm 3 m/S 752 mmHg 56%
    10:00 +7°C° 0 mm 3 m/S 751 mmHg 53%
    11:00 +9°C° 0 mm 3 m/S 751 mmHg 50%
    12:00 +10°C° 0 mm 3 m/S 750 mmHg 47%
    13:00 +10°C° 0 mm 3 m/S 750 mmHg 48%
    14:00 +11°C° 0 mm 3 m/S 750 mmHg 48%
    15:00 +11°C° 0 mm 3 m/S 750 mmHg 49%
    16:00 +9°C° 0 mm 3 m/S 750 mmHg 52%
    17:00 +8°C° 0 mm 3 m/S 751 mmHg 56%
    18:00 +7°C° 0 mm 3 m/S 751 mmHg 60%
    19:00 +5°C° 0 mm 3 m/S 752 mmHg 59%
    20:00 +5°C° 0 mm 3 m/S 752 mmHg 57%
    21:00 +4°C° 0 mm 4 m/S 752 mmHg 56%
    22:00 +4°C° 0 mm 4 m/S 752 mmHg 56%
    23:00 +4°C° 0 mm 4 m/S 752 mmHg 55%

    24 Januar, Donnerstag

    Zeit Temperatur Niederschläge Wind Luftdruck Luftfeuchtigkeit
    00:00 +4°C° 0 mm 4 m/S 752 mmHg 55%
    01:00 +4°C° 0 mm 4 m/S 752 mmHg 55%
    02:00 +4°C° 0 mm 4 m/S 752 mmHg 55%
    03:00 +3°C° 0 mm 4 m/S 752 mmHg 55%
    04:00 +3°C° 0 mm 4 m/S 752 mmHg 55%
    05:00 +3°C° 0 mm 4 m/S 752 mmHg 55%
    06:00 +3°C° 0 mm 4 m/S 751 mmHg 54%
    07:00 +4°C° 0 mm 4 m/S 751 mmHg 53%
    08:00 +5°C° 0 mm 4 m/S 751 mmHg 51%
    09:00 +5°C° 0 mm 4 m/S 751 mmHg 49%
    10:00 +7°C° 0 mm 5 m/S 750 mmHg 46%
    11:00 +9°C° 0 mm 5 m/S 749 mmHg 44%
    12:00 +12°C° 0 mm 5 m/S 749 mmHg 41%
    13:00 +12°C° 0 mm 5 m/S 748 mmHg 41%
    14:00 +12°C° 0 mm 4 m/S 748 mmHg 41%
    15:00 +13°C° 0 mm 4 m/S 748 mmHg 42%
    16:00 +11°C° 0 mm 4 m/S 748 mmHg 45%
    17:00 +10°C° 0 mm 4 m/S 748 mmHg 48%
    18:00 +8°C° 0 mm 4 m/S 749 mmHg 51%
    19:00 +7°C° 0 mm 4 m/S 749 mmHg 50%
    20:00 +7°C° 0 mm 4 m/S 749 mmHg 49%
    21:00 +6°C° 0 mm 4 m/S 748 mmHg 48%
    22:00 +6°C° 0 mm 4 m/S 749 mmHg 49%
    23:00 +6°C° 0 mm 4 m/S 749 mmHg 50%

    25 Januar, Freitag

    Zeit Temperatur Niederschläge Wind Luftdruck Luftfeuchtigkeit
    00:00 +6°C° 0 mm 4 m/S 749 mmHg 50%
    01:00 +6°C° 0 mm 4 m/S 748 mmHg 51%
    02:00 +6°C° 0 mm 4 m/S 748 mmHg 51%
    03:00 +6°C° 0 mm 4 m/S 748 mmHg 51%
    04:00 +7°C° 0 mm 3 m/S 748 mmHg 53%
    05:00 +7°C° 0 mm 3 m/S 748 mmHg 55%
    06:00 +7°C° 0 mm 3 m/S 748 mmHg 57%
    07:00 +7°C° 0.2 mm 3 m/S 748 mmHg 57%
    08:00 +7°C° 0.2 mm 3 m/S 748 mmHg 58%
    09:00 +8°C° 0.2 mm 3 m/S 748 mmHg 58%
    10:00 +9°C° 0.1 mm 3 m/S 748 mmHg 56%
    11:00 +10°C° 0.1 mm 3 m/S 747 mmHg 54%
    12:00 +12°C° 0.1 mm 2 m/S 747 mmHg 52%
    13:00 +12°C° 0.1 mm 2 m/S 747 mmHg 54%
    14:00 +12°C° 0.1 mm 2 m/S 747 mmHg 55%
    15:00 +13°C° 0.1 mm 2 m/S 746 mmHg 56%
    16:00 +12°C° 0 mm 2 m/S 747 mmHg 59%
    17:00 +10°C° 0 mm 2 m/S 747 mmHg 63%
    18:00 +9°C° 0 mm 2 m/S 748 mmHg 66%
    19:00 +9°C° 0 mm 2 m/S 748 mmHg 67%
    20:00 +8°C° 0 mm 2 m/S 748 mmHg 67%
    21:00 +8°C° 0 mm 2 m/S 748 mmHg 67%
    22:00 +8°C° 0 mm 2 m/S 748 mmHg 66%
    23:00 +7°C° 0 mm 2 m/S 748 mmHg 66%

    26 Januar, Samstag

    Zeit Temperatur Niederschläge Wind Luftdruck Luftfeuchtigkeit
    00:00 +7°C° 0 mm 2 m/S 748 mmHg 65%
    01:00 +7°C° 0 mm 2 m/S 748 mmHg 64%
    02:00 +7°C° 0 mm 3 m/S 748 mmHg 63%
    03:00 +5°C° 0 mm 3 m/S 748 mmHg 63%
    04:00 +7°C° 0 mm 3 m/S 747 mmHg 62%
    05:00 +7°C° 0 mm 3 m/S 747 mmHg 61%
    06:00 +7°C° 0 mm 3 m/S 747 mmHg 61%
    07:00 +7°C° 0 mm 3 m/S 746 mmHg 59%
    08:00 +8°C° 0 mm 3 m/S 746 mmHg 58%
    09:00 +8°C° 0 mm 3 m/S 746 mmHg 56%
    10:00 +10°C° 0 mm 3 m/S 745 mmHg 52%
    11:00 +12°C° 0 mm 3 m/S 745 mmHg 48%
    12:00 +14°C° 0 mm 3 m/S 744 mmHg 44%
    13:00 +15°C° 0 mm 2 m/S 744 mmHg 45%
    14:00 +15°C° 0 mm 2 m/S 744 mmHg 46%
    15:00 +15°C° 0 mm 2 m/S 744 mmHg 46%
    16:00 +14°C° 0 mm 2 m/S 744 mmHg 50%
    17:00 +13°C° 0 mm 2 m/S 745 mmHg 53%
    18:00 +10°C° 0 mm 2 m/S 745 mmHg 57%
    19:00 +10°C° 0 mm 2 m/S 745 mmHg 57%
    20:00 +10°C° 0 mm 2 m/S 746 mmHg 58%
    21:00 +9°C° 0 mm 2 m/S 746 mmHg 59%
    22:00 +9°C° 0 mm 2 m/S 746 mmHg 60%
    23:00 +8°C° 0 mm 3 m/S 746 mmHg 61%
    Mehr zeigen